Tracking 35275 objects as of 8-Sep-2026
HD Live streaming from Space Station
objects crossing your sky now

COSMOS 1588 DEB


COSMOS 1588 DEB is no longer on orbit


NORAD ID: 16705
Int'l Code: 1984-083AP
Launch date: August 7, 1984
Source: Commonwealth of Independent States (former USSR) (CIS)
Launch site: TYURATAM MISSILE AND SPACE COMPLEX (TTMTR)
Decay date: 1986-06-01

Note: This is SATELLITE DEBRIS
Your satellite tracking list
Your tracking list is empty




NASA's NSSDC Master Catalog

Two Line Element Set (TLE):
1 16705U 84083AP  86150.96097692  .02230020 +40180-5 +33820-2 0  9995
2 16705 065.0032 276.9776 0022056 290.6468 069.2595 16.03653035011674
Source of the keplerian elements: AFSPC